Search for airport 
image banner adimage banner ad
image banner ad

DGSI - Kumasi

Located in Kumasi, Ghana

ICAO - DGSI, IATA - KMS

Data provided by Airmate  

General information

Coordinates: N6°42'53" W1°35'27"
Elevation is 942 feet MSL.
 
Rated:
View ratings: [VIEW]


View others Airports in Ashanti Region

Operational data

Open for public use
Current time UTC:
Current local time:
Weather
METAR: DGSI 281400Z 32005KT 6000 NSC 37/18 Q1010 NOSIG
TAF: TAF DGSI 281100Z 2812/2912 23010KT 8000 NSC BECMG 2818/2820 6000 SCT012 PROB40 2906/2909 3000 BR BKN010
View NOTAMs / SUP AIP / TFR affecting this airport [VIEW]
Communications frequencies: [VIEW]

Runways:

RWY identifierQFULength (ft)Width (ft)SurfaceLDA (ft)
0212°6542148ASP
20192°6542148

Airport contact information

Address: Kumasi Ghana

Satellite view of DGSI